Date String (YYYY-MM-DD hh:mm:ss) UTC,Instrument flags,absolute air pressure of the measurement (hPa),sample flow rate (lpm),inlet stack bypass flow (lpm),air temperature of the measurement (°C),ambient temperature measured by the external sensor (°C),aerosol sample conditioner tube jacket temperature (°C),OPC LED temperature (°C),internal box temperature (°C),relative humidity of the measurement (%),span deviation,mass concentration of particles derived from Lorenz-Mie calculation of OPC scattering (μg/m³),mass concentration of particles derived from Lorenz-Mie calculation of OPC scattering (μg/m³),mass concentration of particles derived from Lorenz-Mie calculation of OPC scattering (μg/m³)
DateTimeUTC,F1_M11,P_M11,Q1_M11,Q2_M11,T1_M11,T2_M11,T3_M11,T4_M11,T5_M11,U1_M11,ZSPAN_M11,X0_M11,X2_M11,X1_M11
2024-04-12 09:00:00,SystemResetWarning,0829.4,5.00,000.00,024.4,023.7,000.0,032.8,026.2,010.0,0000.0,0014.93,0004.86,0002.49
2024-04-12 09:01:00,SystemResetWarning,0829.3,5.00,000.00,024.4,023.7,000.0,032.8,026.2,010.0,0000.0,0015.00,0004.88,0002.52
2024-04-12 09:02:00,SystemResetWarning,0829.3,5.00,000.00,024.4,023.7,000.0,032.8,026.2,009.9,0000.0,0015.60,0004.95,0002.53
2024-04-12 09:03:00,SystemResetWarning,0829.3,5.00,000.00,024.4,023.7,000.0,032.8,026.2,009.8,0000.0,0015.99,0005.00,0002.53
2024-04-12 09:04:00,SystemResetWarning,0829.3,5.00,000.00,024.4,023.7,000.0,032.8,026.2,009.7,0000.0,0015.85,0004.98,0002.52
2024-04-12 09:05:00,SystemResetWarning,0829.4,4.99,000.00,024.4,023.7,000.0,032.8,026.2,009.8,0000.0,0016.11,0005.05,0002.52
2024-04-12 09:06:00,SystemResetWarning,0829.4,5.00,000.00,024.4,023.7,000.0,032.8,026.2,009.8,0000.0,0016.45,0005.05,0002.52
2024-04-12 09:07:00,SystemResetWarning,0829.4,5.00,000.00,024.4,023.7,000.0,032.8,026.2,009.7,0000.0,0015.79,0005.14,0002.55
2024-04-12 09:08:00,SystemResetWarning,0829.5,5.01,000.00,024.4,023.7,000.0,032.9,026.2,009.7,0000.0,0015.14,0005.14,0002.55
2024-04-12 09:09:00,SystemResetWarning,0829.5,5.02,000.00,024.4,023.7,000.0,032.9,026.2,009.7,0000.0,0014.62,0005.09,0002.51
2024-04-12 09:10:00,SystemResetWarning,0829.5,5.00,000.00,024.4,023.7,000.0,032.9,026.2,009.8,0000.0,0014.19,0005.06,0002.50
2024-04-12 09:11:00,SystemResetWarning,0829.6,5.00,000.00,024.4,023.7,000.0,032.9,026.2,009.5,0000.0,0013.31,0005.02,0002.51
2024-04-12 09:12:00,SystemResetWarning,0829.6,5.00,000.00,024.4,023.7,000.0,032.8,026.2,009.3,0000.0,0013.23,0005.00,0002.49
2024-04-12 09:13:00,SystemResetWarning,0829.6,5.00,000.00,024.4,023.7,000.0,032.8,026.2,009.1,0000.0,0013.03,0005.03,0002.49
2024-04-12 09:14:00,SystemResetWarning,0829.6,5.00,000.00,024.4,023.7,000.0,032.8,026.2,009.1,0000.0,0012.45,0004.92,0002.46
2024-04-12 09:15:00,SystemResetWarning,0829.5,5.00,000.00,024.4,023.7,000.0,032.8,026.2,009.1,0000.0,0012.69,0004.92,0002.47
2024-04-12 09:16:00,SystemResetWarning,0829.5,4.99,000.00,024.4,023.7,000.0,032.9,026.2,009.1,0000.0,0012.70,0004.89,0002.47
2024-04-12 09:17:00,SystemResetWarning,0829.5,5.00,000.00,024.4,023.7,000.0,032.9,026.2,009.1,0000.0,0012.55,0004.88,0002.47
2024-04-12 09:18:00,SystemResetWarning,0829.5,5.00,000.00,024.4,023.7,000.0,032.8,026.2,009.1,0000.0,0011.87,0004.87,0002.47
2024-04-12 09:19:00,SystemResetWarning,0829.5,5.00,000.00,024.4,023.7,000.0,032.8,026.2,009.0,0000.0,0012.25,0004.85,0002.45
2024-04-12 09:20:00,SystemResetWarning,0829.5,5.00,000.00,024.4,023.7,000.0,032.8,026.2,009.0,0000.0,0012.24,0004.82,0002.46
2024-04-12 09:21:00,SystemResetWarning,0829.5,4.99,000.00,024.4,023.7,000.0,032.8,026.2,009.0,0000.0,0012.28,0004.82,0002.47
2024-04-12 09:22:00,SystemResetWarning,0829.6,5.00,000.00,024.4,023.7,000.0,032.8,026.2,009.0,0000.0,0012.37,0004.85,0002.47
2024-04-12 09:23:00,SystemResetWarning,0829.6,5.00,000.00,024.4,023.7,000.0,032.8,026.2,009.2,0000.0,0012.66,0004.91,0002.46
2024-04-12 09:24:00,SystemResetWarning,0829.6,5.00,000.00,024.4,023.7,000.0,032.8,026.2,009.9,0000.0,0012.90,0004.97,0002.48
2024-04-12 09:25:00,SystemResetWarning,0829.5,5.00,000.00,024.4,023.7,000.0,032.8,026.2,009.7,0000.0,0013.12,0005.05,0002.47
2024-04-12 09:26:00,SystemResetWarning,0829.5,5.00,000.00,024.4,023.7,000.0,032.8,026.2,009.4,0000.0,0012.98,0005.12,0002.47
2024-04-12 09:27:00,SystemResetWarning,0829.4,5.00,000.00,024.4,023.7,000.0,032.8,026.2,009.4,0000.0,0012.86,0005.08,0002.47
2024-04-12 09:28:00,SystemResetWarning,0829.3,5.00,000.00,024.4,023.7,000.0,032.8,026.2,009.6,0000.0,0012.83,0005.10,0002.47
2024-04-12 09:29:00,SystemResetWarning,0829.4,5.00,000.00,024.4,023.7,000.0,032.8,026.2,009.8,0000.0,0013.03,0005.17,0002.48
2024-04-12 09:30:00,SystemResetWarning,0829.4,5.00,000.00,024.4,023.6,000.0,032.8,026.2,009.8,0000.0,0012.66,0005.15,0002.48
2024-04-12 09:31:00,SystemResetWarning,0829.4,5.01,000.00,024.4,023.7,000.0,032.8,026.2,009.9,0000.0,0012.54,0005.15,0002.46
2024-04-12 09:32:00,SystemResetWarning,0829.4,5.00,000.00,024.4,023.7,000.0,032.8,026.2,009.8,0000.0,0012.33,0005.15,0002.43
2024-04-12 09:33:00,SystemResetWarning,0829.4,5.01,000.00,024.4,023.7,000.0,032.8,026.2,009.7,0000.0,0012.37,0005.20,0002.46
2024-04-12 09:34:00,SystemResetWarning,0829.5,5.00,000.00,024.4,023.7,000.0,032.9,026.2,009.5,0000.0,0012.50,0005.26,0002.48
2024-04-12 09:35:00,SystemResetWarning,0829.5,4.99,000.00,024.4,023.7,000.0,032.9,026.2,009.7,0000.0,0012.25,0005.15,0002.46
2024-04-12 09:36:00,SystemResetWarning,0829.5,4.99,000.00,024.4,023.7,000.0,032.9,026.2,009.8,0000.0,0011.98,0005.04,0002.44
2024-04-12 09:37:00,SystemResetWarning,0829.5,5.00,000.00,024.4,023.7,000.0,032.9,026.2,010.1,0000.0,0011.95,0005.03,0002.46
2024-04-12 09:38:00,SystemResetWarning,0829.5,5.00,000.00,024.4,023.6,000.0,032.9,026.2,010.6,0000.0,0011.82,0005.01,0002.43
2024-04-12 09:39:00,SystemResetWarning,0829.4,5.00,000.00,024.4,023.6,000.0,032.9,026.2,011.4,0000.0,0011.80,0005.00,0002.43
2024-04-12 09:40:00,SystemResetWarning,0829.4,5.00,000.00,024.4,023.6,000.0,032.9,026.2,011.6,0000.0,0011.40,0004.87,0002.42
2024-04-12 09:41:00,SystemResetWarning,0829.4,5.00,000.00,024.4,023.7,000.0,032.9,026.2,011.1,0000.0,0011.37,0004.89,0002.46
2024-04-12 09:42:00,SystemResetWarning,0829.5,4.99,000.00,024.4,023.7,000.0,032.9,026.2,011.2,0000.0,0011.83,0005.01,0002.53
2024-04-12 09:43:00,SystemResetWarning,0829.4,5.00,000.00,024.4,023.6,000.0,032.9,026.2,011.4,0000.0,0012.12,0005.02,0002.57
2024-04-12 09:44:00,SystemResetWarning,0829.4,5.00,000.00,024.4,023.6,000.0,032.9,026.2,011.8,0000.0,0011.93,0004.96,0002.56
2024-04-12 09:45:00,SystemResetWarning,0829.4,5.00,000.00,024.4,023.6,000.0,032.9,026.2,011.8,0000.0,0011.63,0004.87,0002.57
2024-04-12 09:46:00,SystemResetWarning,0829.5,5.00,000.00,024.4,023.6,000.0,032.9,026.2,011.5,0000.0,0012.59,0004.96,0002.62
2024-04-12 09:47:00,SystemResetWarning,0829.5,5.00,000.00,024.4,023.6,000.0,032.9,026.2,011.9,0000.0,0013.31,0005.05,0002.64
2024-04-12 09:48:00,SystemResetWarning,0829.5,5.00,000.00,024.4,023.6,000.0,032.9,026.2,012.1,0000.0,0013.44,0005.07,0002.68
2024-04-12 09:49:00,SystemResetWarning,0829.5,5.01,000.00,024.4,023.6,000.0,032.9,026.2,011.9,0000.0,0013.89,0005.13,0002.73
2024-04-12 09:50:00,SystemResetWarning,0829.5,5.00,000.00,024.4,023.6,000.0,032.9,026.2,011.7,0000.0,0015.18,0005.17,0002.76
2024-04-12 09:51:00,SystemResetWarning,0829.5,5.00,000.00,024.4,023.6,000.0,032.9,026.2,011.9,0000.0,0017.05,0005.29,0002.79
2024-04-12 09:52:00,SystemResetWarning,0829.4,5.00,000.00,024.4,023.6,000.0,032.9,026.2,011.6,0000.0,0018.81,0005.37,0002.77
2024-04-12 09:53:00,SystemResetWarning,0829.3,5.00,000.00,024.3,023.6,000.0,032.9,026.2,011.2,0000.0,0019.01,0005.31,0002.77
2024-04-12 09:54:00,SystemResetWarning,0829.3,5.00,000.00,024.4,023.6,000.0,032.9,026.2,011.2,0000.0,0019.65,0005.36,0002.75
2024-04-12 09:55:00,SystemResetWarning,0829.3,5.00,000.00,024.4,023.6,000.0,032.9,026.2,011.0,0000.0,0020.52,0005.43,0002.75
2024-04-12 09:56:00,SystemResetWarning,0829.4,5.00,000.00,024.4,023.6,000.0,032.9,026.2,011.0,0000.0,0020.67,0005.44,0002.74
2024-04-12 09:57:00,SystemResetWarning,0829.4,5.00,000.00,024.3,023.6,000.0,032.9,026.2,010.9,0000.0,0019.90,0005.46,0002.73
2024-04-12 09:58:00,SystemResetWarning,0829.4,5.00,000.00,024.3,023.6,000.0,032.9,026.2,011.4,0000.0,0019.77,0005.46,0002.75
2024-04-12 09:59:00,SystemResetWarning,0829.4,5.00,000.00,024.4,023.6,000.0,032.9,026.2,010.9,0000.0,0020.03,0005.51,0002.74
